Starlink 31557

operational
NORAD ID: 59357 Int'l Des: 2024-060 Owner: SPXS Country: US Constellation: starlink
LEOCIRCULAR

Über Starlink 31557

Beschreibung wird geladen...

Live-Position

3D-Globus wird geladen...

Nächste Überflüge

Höhenverlauf

Altitude vs Time

uPlot chart will show altitude changes over time

Zweizeiliger Elementsatz

1 59357U 24060K 26036.15232713 -.00001221 00000-0 -34858-4 0 9992
2 59357 43.0032 79.5170 0001695 278.8495 81.2165 15.27578343105134
Epoch: 5. Feb. 2026 • Age: 16 hours

Aktueller Status

Höhe 484.4 km
Geschwindigkeit 7.63 km/s
Subsatellitenpunkt 28.80°N, 144.75°E
Startdatum 31. März 2024
Alter 1.8 years
Typ internet

Technische Details

Klassifizierung Payload
Masse 730.00 kg
Trockenmasse 700.00 kg
Gesamtmasse 730.00 kg
Länge 0.30 m
Durchmesser 4.10 m
Spannweite 29.00 m
Form Box + pan
Hersteller SPXS
Bus-Typ Starlink V2M
Phasenstatus In Orbit
Besitzer/Staat SPXS/US

Große Konstellationen

Loading constellations...